Time,TemperatureF,DewpointF,PressureIn,WindDirection,WindDirectionDegrees,WindSpeedMPH,WindSpeedGustMPH,Humidity,HourlyPrecipIn,Conditions,Clouds,dailyrainin,SoftwareType,DateUTC
2013-07-08 00:02:00,77.0,74.5,30.11,South,176,5.0,9.0,92,0.00,,,0.00,Wunderground v.1.15,2013-07-08 05:02:00,
2013-07-08 00:08:00,76.6,73.8,30.11,South,188,12.0,12.0,91,0.00,,,0.00,Wunderground v.1.15,2013-07-08 05:08:00,
2013-07-08 00:13:00,76.5,73.7,30.11,South,190,10.0,10.0,91,0.00,,,0.00,Wunderground v.1.15,2013-07-08 05:13:00,
2013-07-08 00:19:00,76.6,74.1,30.11,South,180,7.0,11.0,92,0.00,,,0.00,Wunderground v.1.15,2013-07-08 05:19:00,
2013-07-08 00:25:00,76.6,74.1,30.11,SW,214,10.0,11.0,92,0.00,,,0.00,Wunderground v.1.15,2013-07-08 05:25:00,
2013-07-08 00:31:00,76.7,74.2,30.10,SSW,194,4.0,9.0,92,0.00,,,0.00,Wunderground v.1.15,2013-07-08 05:31:00,
2013-07-08 00:37:00,76.8,74.0,30.10,SW,235,2.0,9.0,91,0.00,,,0.00,Wunderground v.1.15,2013-07-08 05:37:00,
2013-07-08 00:43:00,76.8,74.0,30.10,WSW,246,6.0,7.0,91,0.00,,,0.00,Wunderground v.1.15,2013-07-08 05:43:00,
2013-07-08 00:49:00,76.7,74.2,30.10,SSW,200,3.0,7.0,92,0.00,,,0.00,Wunderground v.1.15,2013-07-08 05:49:00,
2013-07-08 00:54:00,76.8,74.3,30.09,NNW,340,2.0,5.0,92,0.00,,,0.00,Wunderground v.1.15,2013-07-08 05:54:00,
2013-07-08 01:00:00,76.8,74.6,30.09,SW,214,1.0,3.0,93,0.00,,,0.00,Wunderground v.1.15,2013-07-08 06:00:00,
2013-07-08 01:06:00,76.8,74.6,30.09,SW,219,1.0,4.0,93,0.00,,,0.00,Wunderground v.1.15,2013-07-08 06:06:00,
2013-07-08 01:12:00,76.8,74.9,30.09,SSW,200,1.0,4.0,94,0.00,,,0.00,Wunderground v.1.15,2013-07-08 06:12:00,
2013-07-08 01:18:00,76.8,74.9,30.09,SSW,194,4.0,5.0,94,0.00,,,0.00,Wunderground v.1.15,2013-07-08 06:18:00,
2013-07-08 01:24:00,76.8,74.9,30.08,SSW,207,3.0,4.0,94,0.00,,,0.00,Wunderground v.1.15,2013-07-08 06:24:00,
2013-07-08 01:30:00,76.7,74.5,30.08,SSW,194,1.0,2.0,93,0.00,,,0.00,Wunderground v.1.15,2013-07-08 06:30:00,
2013-07-08 01:35:00,76.7,74.5,30.08,SE,146,1.0,3.0,93,0.00,,,0.00,Wunderground v.1.15,2013-07-08 06:35:00,
2013-07-08 01:41:00,76.6,74.4,30.07,SE,132,1.0,1.0,93,0.00,,,0.00,Wunderground v.1.15,2013-07-08 06:41:00,
2013-07-08 01:47:00,76.5,74.3,30.07,SE,132,0.0,1.0,93,0.00,,,0.00,Wunderground v.1.15,2013-07-08 06:47:00,
2013-07-08 01:53:00,76.6,74.1,30.07,ESE,122,2.0,3.0,92,0.00,,,0.00,Wunderground v.1.15,2013-07-08 06:53:00,
2013-07-08 01:59:00,76.8,74.3,30.07,ESE,108,2.0,5.0,92,0.00,,,0.00,Wunderground v.1.15,2013-07-08 06:59:00,
2013-07-08 02:04:00,76.8,74.0,30.07,ESE,104,2.0,4.0,91,0.00,,,0.00,Wunderground v.1.15,2013-07-08 07:04:00,
2013-07-08 02:09:00,76.9,74.1,30.07,East,94,2.0,4.0,91,0.00,,,0.00,Wunderground v.1.15,2013-07-08 07:09:00,
2013-07-08 02:14:00,76.9,74.1,30.06,ESE,110,0.0,3.0,91,0.00,,,0.00,Wunderground v.1.15,2013-07-08 07:14:00,
2013-07-08 02:19:00,77.0,74.5,30.06,ESE,111,2.0,3.0,92,0.00,,,0.00,Wunderground v.1.15,2013-07-08 07:19:00,
2013-07-08 02:24:00,77.0,74.2,30.06,ESE,108,2.0,7.0,91,0.00,,,0.00,Wunderground v.1.15,2013-07-08 07:24:00,
2013-07-08 02:29:00,77.1,73.9,30.06,ENE,71,3.0,7.0,90,0.00,,,0.00,Wunderground v.1.15,2013-07-08 07:29:00,
2013-07-08 02:34:00,77.0,73.5,30.06,East,84,3.0,6.0,89,0.00,,,0.00,Wunderground v.1.15,2013-07-08 07:34:00,
2013-07-08 02:39:00,77.1,73.9,30.06,East,82,4.0,6.0,90,0.00,,,0.00,Wunderground v.1.15,2013-07-08 07:39:00,
2013-07-08 02:44:00,77.1,73.6,30.06,SE,134,3.0,5.0,89,0.00,,,0.00,Wunderground v.1.15,2013-07-08 07:44:00,
2013-07-08 02:49:00,77.1,73.6,30.06,ESE,117,4.0,6.0,89,0.00,,,0.00,Wunderground v.1.15,2013-07-08 07:49:00,
2013-07-08 02:54:00,77.2,73.7,30.06,SE,132,2.0,6.0,89,0.00,,,0.00,Wunderground v.1.15,2013-07-08 07:54:00,
2013-07-08 02:59:00,77.2,74.0,30.06,East,85,2.0,6.0,90,0.00,,,0.00,Wunderground v.1.15,2013-07-08 07:59:00,
2013-07-08 03:04:00,77.2,74.4,30.06,ESE,108,2.0,4.0,91,0.00,,,0.00,Wunderground v.1.15,2013-07-08 08:04:00,
2013-07-08 03:09:00,77.1,74.6,30.06,ESE,113,2.0,4.0,92,0.00,,,0.00,Wunderground v.1.15,2013-07-08 08:09:00,
2013-07-08 03:14:00,77.0,74.2,30.06,ESE,109,3.0,5.0,91,0.00,,,0.00,Wunderground v.1.15,2013-07-08 08:14:00,
2013-07-08 03:19:00,77.0,74.2,30.05,ESE,106,4.0,5.0,91,0.00,,,0.00,Wunderground v.1.15,2013-07-08 08:19:00,
2013-07-08 03:24:00,77.0,74.2,30.05,ESE,115,2.0,4.0,91,0.00,,,0.00,Wunderground v.1.15,2013-07-08 08:24:00,
2013-07-08 03:29:00,77.0,74.2,30.05,East,82,2.0,4.0,91,0.00,,,0.00,Wunderground v.1.15,2013-07-08 08:29:00,
2013-07-08 03:34:00,77.1,74.3,30.05,East,101,2.0,4.0,91,0.00,,,0.00,Wunderground v.1.15,2013-07-08 08:34:00,
2013-07-08 03:39:00,77.1,73.9,30.05,SE,129,2.0,4.0,90,0.00,,,0.00,Wunderground v.1.15,2013-07-08 08:39:00,
2013-07-08 03:44:00,77.2,74.0,30.05,ESE,116,3.0,4.0,90,0.00,,,0.00,Wunderground v.1.15,2013-07-08 08:44:00,
2013-07-08 03:49:00,77.3,74.1,30.05,East,96,1.0,5.0,90,0.00,,,0.00,Wunderground v.1.15,2013-07-08 08:49:00,
2013-07-08 03:54:00,77.3,74.5,30.05,ESE,105,2.0,5.0,91,0.00,,,0.00,Wunderground v.1.15,2013-07-08 08:54:00,
2013-07-08 03:59:00,77.4,74.2,30.05,East,82,2.0,5.0,90,0.00,,,0.00,Wunderground v.1.15,2013-07-08 08:59:00,
2013-07-08 04:04:00,77.5,74.3,30.05,ENE,76,3.0,4.0,90,0.00,,,0.00,Wunderground v.1.15,2013-07-08 09:04:00,
2013-07-08 04:09:00,77.5,74.3,30.06,East,86,0.0,5.0,90,0.00,,,0.00,Wunderground v.1.15,2013-07-08 09:09:00,
2013-07-08 04:14:00,77.4,74.2,30.05,ENE,65,2.0,3.0,90,0.00,,,0.00,Wunderground v.1.15,2013-07-08 09:14:00,
2013-07-08 04:19:00,77.3,74.1,30.05,East,81,1.0,3.0,90,0.00,,,0.00,Wunderground v.1.15,2013-07-08 09:19:00,
2013-07-08 04:24:00,77.3,74.1,30.05,East,100,2.0,4.0,90,0.00,,,0.00,Wunderground v.1.15,2013-07-08 09:24:00,
2013-07-08 04:29:00,77.4,74.2,30.05,East,101,2.0,4.0,90,0.00,,,0.00,Wunderground v.1.15,2013-07-08 09:29:00,
2013-07-08 04:34:00,77.4,74.2,30.06,ESE,113,1.0,3.0,90,0.00,,,0.00,Wunderground v.1.15,2013-07-08 09:34:00,
2013-07-08 04:39:00,77.4,74.2,30.06,ESE,113,0.0,3.0,90,0.00,,,0.00,Wunderground v.1.15,2013-07-08 09:39:00,
2013-07-08 04:44:00,77.4,74.6,30.06,East,89,0.0,2.0,91,0.00,,,0.00,Wunderground v.1.15,2013-07-08 09:44:00,
2013-07-08 04:49:00,77.3,74.5,30.06,East,89,0.0,2.0,91,0.00,,,0.00,Wunderground v.1.15,2013-07-08 09:49:00,
2013-07-08 04:54:00,77.0,74.2,30.07,NW,326,2.0,2.0,91,0.00,,,0.00,Wunderground v.1.15,2013-07-08 09:54:00,
2013-07-08 04:59:00,76.2,74.0,30.07,NW,326,1.0,2.0,93,0.00,,,0.00,Wunderground v.1.15,2013-07-08 09:59:00,
2013-07-08 05:04:00,75.7,73.8,30.07,NW,326,1.0,2.0,94,0.00,,,0.00,Wunderground v.1.15,2013-07-08 10:04:00,
2013-07-08 05:09:00,75.3,73.8,30.08,NW,326,1.0,2.0,95,0.00,,,0.00,Wunderground v.1.15,2013-07-08 10:09:00,
2013-07-08 05:14:00,75.1,73.6,30.08,NW,324,0.0,2.0,95,0.00,,,0.00,Wunderground v.1.15,2013-07-08 10:14:00,
2013-07-08 05:19:00,74.9,73.7,30.08,WNW,302,1.0,2.0,96,0.00,,,0.00,Wunderground v.1.15,2013-07-08 10:19:00,
2013-07-08 05:24:00,74.8,73.6,30.08,WNW,302,0.0,1.0,96,0.00,,,0.00,Wunderground v.1.15,2013-07-08 10:24:00,
2013-07-08 05:29:00,74.7,73.5,30.08,WNW,302,0.0,0.0,96,0.00,,,0.00,Wunderground v.1.15,2013-07-08 10:29:00,
2013-07-08 05:35:00,74.6,73.4,30.09,WNW,302,0.0,0.0,96,0.00,,,0.00,Wunderground v.1.15,2013-07-08 10:35:00,
2013-07-08 05:40:00,74.6,73.7,30.09,WNW,302,0.0,0.0,97,0.00,,,0.00,Wunderground v.1.15,2013-07-08 10:40:00,
2013-07-08 05:45:00,74.6,73.7,30.09,WNW,302,0.0,0.0,97,0.00,,,0.00,Wunderground v.1.15,2013-07-08 10:45:00,
2013-07-08 05:50:00,74.6,73.7,30.09,NNW,332,0.0,0.0,97,0.00,,,0.00,Wunderground v.1.15,2013-07-08 10:50:00,
2013-07-08 05:55:00,74.5,73.6,30.10,NNW,332,0.0,0.0,97,0.00,,,0.00,Wunderground v.1.15,2013-07-08 10:55:00,
2013-07-08 06:00:00,74.5,73.6,30.09,NNW,332,0.0,0.0,97,0.00,,,0.00,Wunderground v.1.15,2013-07-08 11:00:00,
2013-07-08 06:05:00,74.3,73.4,30.10,NNW,340,0.0,0.0,97,0.00,,,0.00,Wunderground v.1.15,2013-07-08 11:05:00,
2013-07-08 06:10:00,74.3,73.4,30.10,NNW,340,0.0,0.0,97,0.00,,,0.00,Wunderground v.1.15,2013-07-08 11:10:00,
2013-07-08 06:15:00,74.2,73.3,30.10,NNW,340,0.0,0.0,97,0.00,,,0.00,Wunderground v.1.15,2013-07-08 11:15:00,
2013-07-08 06:20:00,74.2,73.6,30.10,NNW,340,0.0,0.0,98,0.00,,,0.00,Wunderground v.1.15,2013-07-08 11:20:00,
2013-07-08 06:25:00,74.2,73.6,30.11,NNW,340,0.0,0.0,98,0.00,,,0.00,Wunderground v.1.15,2013-07-08 11:25:00,
2013-07-08 06:30:00,74.2,73.6,30.11,NNW,338,0.0,0.0,98,0.00,,,0.00,Wunderground v.1.15,2013-07-08 11:30:00,
2013-07-08 06:35:00,74.2,73.6,30.11,NNW,338,0.0,0.0,98,0.00,,,0.00,Wunderground v.1.15,2013-07-08 11:35:00,
2013-07-08 06:40:00,74.2,73.6,30.11,NW,323,0.0,0.0,98,0.00,,,0.00,Wunderground v.1.15,2013-07-08 11:40:00,
2013-07-08 06:45:00,74.2,73.6,30.11,WNW,300,0.0,0.0,98,0.00,,,0.00,Wunderground v.1.15,2013-07-08 11:45:00,
2013-07-08 06:50:00,74.3,73.7,30.12,WNW,300,0.0,0.0,98,0.00,,,0.00,Wunderground v.1.15,2013-07-08 11:50:00,
2013-07-08 06:55:00,74.2,73.6,30.11,NNW,338,0.0,0.0,98,0.00,,,0.00,Wunderground v.1.15,2013-07-08 11:55:00,
2013-07-08 07:00:00,74.3,73.7,30.12,NNW,340,0.0,0.0,98,0.00,,,0.00,Wunderground v.1.15,2013-07-08 12:00:00,
2013-07-08 07:05:00,74.3,73.7,30.12,NNW,346,1.0,3.0,98,0.00,,,0.00,Wunderground v.1.15,2013-07-08 12:05:00,
2013-07-08 07:10:00,74.3,73.7,30.12,North,358,0.0,2.0,98,0.00,,,0.00,Wunderground v.1.15,2013-07-08 12:10:00,
2013-07-08 07:15:00,74.4,73.8,30.12,North,9,1.0,3.0,98,0.00,,,0.00,Wunderground v.1.15,2013-07-08 12:15:00,
2013-07-08 07:20:00,74.6,74.0,30.12,NNE,12,2.0,2.0,98,0.00,,,0.00,Wunderground v.1.15,2013-07-08 12:20:00,
2013-07-08 07:25:00,74.7,74.1,30.12,North,1,0.0,2.0,98,0.00,,,0.00,Wunderground v.1.15,2013-07-08 12:25:00,
2013-07-08 07:30:00,74.8,74.2,30.12,North,5,1.0,2.0,98,0.00,,,0.00,Wunderground v.1.15,2013-07-08 12:30:00,
2013-07-08 07:35:00,74.9,74.3,30.13,NW,325,1.0,2.0,98,0.00,,,0.00,Wunderground v.1.15,2013-07-08 12:35:00,
2013-07-08 07:40:00,75.0,74.4,30.13,North,6,3.0,3.0,98,0.00,,,0.00,Wunderground v.1.15,2013-07-08 12:40:00,
2013-07-08 07:45:00,75.1,74.2,30.13,NNW,347,1.0,3.0,97,0.00,,,0.00,Wunderground v.1.15,2013-07-08 12:45:00,
2013-07-08 07:50:00,75.2,74.3,30.13,NNE,12,2.0,2.0,97,0.00,,,0.00,Wunderground v.1.15,2013-07-08 12:50:00,
2013-07-08 07:55:00,75.3,74.4,30.13,North,5,1.0,4.0,97,0.00,,,0.00,Wunderground v.1.15,2013-07-08 12:55:00,
2013-07-08 08:00:00,75.5,74.6,30.13,North,11,2.0,4.0,97,0.00,,,0.00,Wunderground v.1.15,2013-07-08 13:00:00,
2013-07-08 08:05:00,75.5,74.6,30.14,North,360,2.0,4.0,97,0.00,,,0.00,Wunderground v.1.15,2013-07-08 13:05:00,
2013-07-08 08:10:00,75.6,74.7,30.14,North,9,2.0,3.0,97,0.00,,,0.00,Wunderground v.1.15,2013-07-08 13:10:00,
2013-07-08 08:15:00,75.8,74.9,30.14,North,356,0.0,3.0,97,0.00,,,0.00,Wunderground v.1.15,2013-07-08 13:15:00,
2013-07-08 08:21:00,76.2,75.3,30.14,NNW,343,2.0,3.0,97,0.00,,,0.00,Wunderground v.1.15,2013-07-08 13:21:00,
2013-07-08 08:26:00,76.2,75.0,30.14,NNE,19,1.0,3.0,96,0.00,,,0.00,Wunderground v.1.15,2013-07-08 13:26:00,
2013-07-08 08:31:00,76.4,75.2,30.14,NNE,12,2.0,3.0,96,0.00,,,0.00,Wunderground v.1.15,2013-07-08 13:31:00,
2013-07-08 08:36:00,76.6,75.4,30.14,NNW,339,1.0,3.0,96,0.00,,,0.00,Wunderground v.1.15,2013-07-08 13:36:00,
2013-07-08 08:41:00,76.8,75.6,30.14,NW,325,0.0,1.0,96,0.00,,,0.00,Wunderground v.1.15,2013-07-08 13:41:00,
2013-07-08 08:46:00,77.1,75.6,30.15,NNW,335,0.0,2.0,95,0.00,,,0.00,Wunderground v.1.15,2013-07-08 13:46:00,
2013-07-08 08:51:00,77.4,75.9,30.15,North,356,0.0,0.0,95,0.00,,,0.00,Wunderground v.1.15,2013-07-08 13:51:00,
2013-07-08 08:56:00,77.7,76.2,30.15,NNW,340,0.0,0.0,95,0.00,,,0.00,Wunderground v.1.15,2013-07-08 13:56:00,
2013-07-08 09:01:00,78.0,76.1,30.15,NNW,348,0.0,0.0,94,0.00,,,0.00,Wunderground v.1.15,2013-07-08 14:01:00,
2013-07-08 09:06:00,78.4,76.5,30.15,NNE,19,0.0,0.0,94,0.00,,,0.00,Wunderground v.1.15,2013-07-08 14:06:00,
2013-07-08 09:11:00,78.9,76.7,30.15,East,91,0.0,0.0,93,0.00,,,0.00,Wunderground v.1.15,2013-07-08 14:11:00,
2013-07-08 09:16:00,79.4,76.9,30.15,ENE,78,0.0,0.0,92,0.00,,,0.00,Wunderground v.1.15,2013-07-08 14:16:00,
2013-07-08 09:21:00,79.7,76.8,30.15,SE,136,0.0,0.0,91,0.00,,,0.00,Wunderground v.1.15,2013-07-08 14:21:00,
2013-07-08 09:26:00,80.3,77.4,30.15,NE,45,0.0,0.0,91,0.00,,,0.00,Wunderground v.1.15,2013-07-08 14:26:00,
2013-07-08 09:31:00,80.7,77.5,30.15,ESE,122,0.0,0.0,90,0.00,,,0.00,Wunderground v.1.15,2013-07-08 14:31:00,
2013-07-08 09:36:00,80.6,77.1,30.15,East,96,0.0,0.0,89,0.00,,,0.00,Wunderground v.1.15,2013-07-08 14:36:00,
2013-07-08 09:41:00,80.5,77.0,30.15,East,99,3.0,3.0,89,0.00,,,0.00,Wunderground v.1.15,2013-07-08 14:41:00,
2013-07-08 09:46:00,80.5,77.0,30.15,ESE,112,3.0,4.0,89,0.00,,,0.00,Wunderground v.1.15,2013-07-08 14:46:00,
2013-07-08 09:51:00,80.5,77.0,30.15,ESE,117,3.0,4.0,89,0.00,,,0.00,Wunderground v.1.15,2013-07-08 14:51:00,
2013-07-08 09:56:00,80.1,76.2,30.15,ESE,105,4.0,5.0,88,0.00,,,0.00,Wunderground v.1.15,2013-07-08 14:56:00,
2013-07-08 10:01:00,80.1,76.6,30.15,East,84,3.0,3.0,89,0.00,,,0.00,Wunderground v.1.15,2013-07-08 15:01:00,
2013-07-08 10:06:00,80.2,76.7,30.15,ENE,71,2.0,4.0,89,0.00,,,0.00,Wunderground v.1.15,2013-07-08 15:06:00,
2013-07-08 10:11:00,80.1,76.6,30.15,East,96,3.0,3.0,89,0.00,,,0.00,Wunderground v.1.15,2013-07-08 15:11:00,
2013-07-08 10:16:00,80.3,76.8,30.15,East,79,3.0,5.0,89,0.00,,,0.00,Wunderground v.1.15,2013-07-08 15:16:00,
2013-07-08 10:21:00,80.5,76.6,30.15,East,93,2.0,3.0,88,0.00,,,0.00,Wunderground v.1.15,2013-07-08 15:21:00,
2013-07-08 10:26:00,80.6,76.7,30.15,ESE,120,4.0,5.0,88,0.00,,,0.00,Wunderground v.1.15,2013-07-08 15:26:00,
2013-07-08 10:31:00,80.5,76.3,30.15,East,101,4.0,6.0,87,0.00,,,0.00,Wunderground v.1.15,2013-07-08 15:31:00,
2013-07-08 10:36:00,80.7,76.8,30.15,SE,129,4.0,6.0,88,0.00,,,0.00,Wunderground v.1.15,2013-07-08 15:36:00,
2013-07-08 10:41:00,80.6,76.7,30.15,ESE,113,4.0,7.0,88,0.00,,,0.00,Wunderground v.1.15,2013-07-08 15:41:00,
2013-07-08 10:46:00,80.6,77.1,30.15,SSE,150,2.0,8.0,89,0.00,,,0.00,Wunderground v.1.15,2013-07-08 15:46:00,
2013-07-08 10:51:00,80.9,77.4,30.15,East,85,6.0,6.0,89,0.00,,,0.00,Wunderground v.1.15,2013-07-08 15:51:00,
2013-07-08 10:56:00,80.6,76.7,30.16,East,90,7.0,8.0,88,0.00,,,0.00,Wunderground v.1.15,2013-07-08 15:56:00,
2013-07-08 11:01:00,80.4,76.9,30.16,SE,131,5.0,8.0,89,0.00,,,0.00,Wunderground v.1.15,2013-07-08 16:01:00,
2013-07-08 11:06:00,80.5,77.3,30.15,ESE,117,5.0,8.0,90,0.00,,,0.00,Wunderground v.1.15,2013-07-08 16:06:00,
2013-07-08 11:11:00,80.5,77.3,30.16,SE,125,4.0,7.0,90,0.00,,,0.00,Wunderground v.1.15,2013-07-08 16:11:00,
2013-07-08 11:16:00,80.7,76.8,30.16,East,93,5.0,8.0,88,0.00,,,0.00,Wunderground v.1.15,2013-07-08 16:16:00,
2013-07-08 11:21:00,80.5,77.0,30.16,East,89,5.0,8.0,89,0.00,,,0.00,Wunderground v.1.15,2013-07-08 16:21:00,
2013-07-08 11:26:00,80.3,76.8,30.16,ENE,74,3.0,8.0,89,0.00,,,0.00,Wunderground v.1.15,2013-07-08 16:26:00,
2013-07-08 11:31:00,80.5,77.6,30.16,ESE,120,2.0,5.0,91,0.00,,,0.00,Wunderground v.1.15,2013-07-08 16:31:00,
2013-07-08 11:36:00,80.7,77.8,30.15,ENE,60,4.0,7.0,91,0.00,,,0.00,Wunderground v.1.15,2013-07-08 16:36:00,
2013-07-08 11:41:00,80.9,77.4,30.15,SE,126,6.0,7.0,89,0.00,,,0.00,Wunderground v.1.15,2013-07-08 16:41:00,
2013-07-08 11:46:00,81.1,77.5,30.15,ESE,114,6.0,8.0,89,0.00,,,0.00,Wunderground v.1.15,2013-07-08 16:46:00,
2013-07-08 11:51:00,81.7,78.1,30.15,SE,135,3.0,7.0,89,0.00,,,0.00,Wunderground v.1.15,2013-07-08 16:51:00,
2013-07-08 11:56:00,81.6,78.0,30.15,SE,134,5.0,8.0,89,0.00,,,0.00,Wunderground v.1.15,2013-07-08 16:56:00,
2013-07-08 12:02:00,81.6,78.0,30.15,ESE,107,4.0,8.0,89,0.00,,,0.00,Wunderground v.1.15,2013-07-08 17:02:00,
2013-07-08 12:07:00,81.5,77.9,30.15,ESE,105,6.0,9.0,89,0.00,,,0.00,Wunderground v.1.15,2013-07-08 17:07:00,
2013-07-08 12:12:00,81.4,78.2,30.15,SE,131,6.0,8.0,90,0.00,,,0.00,Wunderground v.1.15,2013-07-08 17:12:00,
2013-07-08 12:17:00,81.4,77.8,30.15,SE,127,5.0,9.0,89,0.00,,,0.00,Wunderground v.1.15,2013-07-08 17:17:00,
2013-07-08 12:22:00,81.2,77.3,30.15,East,101,7.0,8.0,88,0.00,,,0.00,Wunderground v.1.15,2013-07-08 17:22:00,
2013-07-08 12:27:00,81.6,78.4,30.15,ESE,104,7.0,8.0,90,0.00,,,0.00,Wunderground v.1.15,2013-07-08 17:27:00,
2013-07-08 12:32:00,82.2,77.9,30.14,ESE,121,6.0,8.0,87,0.00,,,0.00,Wunderground v.1.15,2013-07-08 17:32:00,
2013-07-08 12:37:00,82.1,77.8,30.14,ESE,113,6.0,8.0,87,0.00,,,0.00,Wunderground v.1.15,2013-07-08 17:37:00,
2013-07-08 12:43:00,82.0,78.1,30.14,SE,139,5.0,8.0,88,0.00,,,0.00,Wunderground v.1.15,2013-07-08 17:43:00,
2013-07-08 12:49:00,82.3,78.4,30.14,ESE,107,9.0,9.0,88,0.00,,,0.00,Wunderground v.1.15,2013-07-08 17:49:00,
2013-07-08 12:54:00,82.8,78.5,30.13,SE,141,4.0,7.0,87,0.00,,,0.00,Wunderground v.1.15,2013-07-08 17:54:00,
2013-07-08 13:00:00,83.3,79.0,30.13,ESE,122,5.0,5.0,87,0.00,,,0.00,Wunderground v.1.15,2013-07-08 18:00:00,
2013-07-08 13:05:00,83.2,78.2,30.13,ESE,120,4.0,7.0,85,0.00,,,0.00,Wunderground v.1.15,2013-07-08 18:05:00,
2013-07-08 13:11:00,83.9,78.9,30.13,SE,142,3.0,5.0,85,0.00,,,0.00,Wunderground v.1.15,2013-07-08 18:11:00,
2013-07-08 13:17:00,84.2,78.5,30.14,SE,128,3.0,8.0,83,0.00,,,0.00,Wunderground v.1.15,2013-07-08 18:17:00,
2013-07-08 13:22:00,84.4,79.0,30.14,ESE,120,5.0,5.0,84,0.00,,,0.00,Wunderground v.1.15,2013-07-08 18:22:00,
2013-07-08 13:27:00,84.4,79.0,30.14,ESE,122,5.0,5.0,84,0.00,,,0.00,Wunderground v.1.15,2013-07-08 18:27:00,
2013-07-08 13:32:00,84.3,78.9,30.14,ESE,117,3.0,7.0,84,0.00,,,0.00,Wunderground v.1.15,2013-07-08 18:32:00,
2013-07-08 13:37:00,84.6,78.9,30.14,ESE,115,5.0,7.0,83,0.00,,,0.00,Wunderground v.1.15,2013-07-08 18:37:00,
2013-07-08 13:44:00,85.1,79.0,30.13,SSE,154,7.0,7.0,82,0.00,,,0.00,Wunderground v.1.15,2013-07-08 18:44:00,
2013-07-08 13:49:00,85.1,78.6,30.13,SSE,157,4.0,7.0,81,0.00,,,0.00,Wunderground v.1.15,2013-07-08 18:49:00,
2013-07-08 13:55:00,84.8,79.1,30.13,SE,146,3.0,7.0,83,0.00,,,0.00,Wunderground v.1.15,2013-07-08 18:55:00,
2013-07-08 14:00:00,85.0,79.3,30.12,SE,127,5.0,5.0,83,0.00,,,0.00,Wunderground v.1.15,2013-07-08 19:00:00,
2013-07-08 14:07:00,85.2,79.4,30.12,South,170,4.0,7.0,83,0.00,,,0.00,Wunderground v.1.15,2013-07-08 19:07:00,
2013-07-08 14:12:00,85.2,78.7,30.12,SSE,148,7.0,7.0,81,0.00,,,0.00,Wunderground v.1.15,2013-07-08 19:12:00,
2013-07-08 14:17:00,85.2,79.1,30.11,SE,146,9.0,9.0,82,0.00,,,0.00,Wunderground v.1.15,2013-07-08 19:17:00,
2013-07-08 14:22:00,84.5,78.8,30.11,ESE,114,6.0,7.0,83,0.00,,,0.00,Wunderground v.1.15,2013-07-08 19:22:00,
2013-07-08 14:27:00,84.5,79.1,30.11,SSE,160,8.0,10.0,84,0.00,,,0.00,Wunderground v.1.15,2013-07-08 19:27:00,
2013-07-08 14:33:00,84.9,79.5,30.11,SE,134,6.0,8.0,84,0.00,,,0.00,Wunderground v.1.15,2013-07-08 19:33:00,
2013-07-08 14:38:00,85.2,79.4,30.11,SSE,150,5.0,9.0,83,0.00,,,0.00,Wunderground v.1.15,2013-07-08 19:38:00,
2013-07-08 14:43:00,85.2,79.4,30.12,SE,146,6.0,11.0,83,0.00,,,0.00,Wunderground v.1.15,2013-07-08 19:43:00,
2013-07-08 14:49:00,85.2,80.2,30.12,SE,145,5.0,11.0,85,0.00,,,0.00,Wunderground v.1.15,2013-07-08 19:49:00,
2013-07-08 14:54:00,85.5,79.4,30.12,SSE,148,6.0,11.0,82,0.00,,,0.00,Wunderground v.1.15,2013-07-08 19:54:00,
2013-07-08 14:59:00,85.4,79.3,30.12,SSW,193,8.0,11.0,82,0.00,,,0.00,Wunderground v.1.15,2013-07-08 19:59:00,
2013-07-08 15:05:00,84.8,79.4,30.12,SE,127,6.0,9.0,84,0.00,,,0.00,Wunderground v.1.15,2013-07-08 20:05:00,
2013-07-08 15:10:00,85.1,79.4,30.12,SSE,155,12.0,12.0,83,0.00,,,0.00,Wunderground v.1.15,2013-07-08 20:10:00,
2013-07-08 15:16:00,85.0,78.9,30.12,SSE,156,7.0,12.0,82,0.00,,,0.00,Wunderground v.1.15,2013-07-08 20:16:00,
2013-07-08 15:21:00,85.1,79.0,30.12,SE,141,8.0,8.0,82,0.00,,,0.00,Wunderground v.1.15,2013-07-08 20:21:00,
2013-07-08 15:26:00,84.9,78.0,30.12,SSE,150,10.0,15.0,80,0.00,,,0.00,Wunderground v.1.15,2013-07-08 20:26:00,
2013-07-08 15:31:00,84.1,77.6,30.11,SSE,160,13.0,13.0,81,0.00,,,0.00,Wunderground v.1.15,2013-07-08 20:31:00,
2013-07-08 15:36:00,83.9,78.2,30.11,SE,138,6.0,13.0,83,0.00,,,0.00,Wunderground v.1.15,2013-07-08 20:36:00,
2013-07-08 15:42:00,83.5,78.5,30.11,SSE,154,7.0,9.0,85,0.00,,,0.00,Wunderground v.1.15,2013-07-08 20:42:00,
2013-07-08 15:47:00,82.9,77.9,30.11,SSE,158,9.0,12.0,85,0.00,,,0.00,Wunderground v.1.15,2013-07-08 20:47:00,
2013-07-08 15:53:00,82.3,77.7,30.11,SSE,150,9.0,10.0,86,0.00,,,0.00,Wunderground v.1.15,2013-07-08 20:53:00,
2013-07-08 15:59:00,82.2,78.3,30.11,South,188,4.0,10.0,88,0.00,,,0.00,Wunderground v.1.15,2013-07-08 20:59:00,
2013-07-08 16:04:00,81.9,78.0,30.11,SE,142,6.0,10.0,88,0.00,,,0.00,Wunderground v.1.15,2013-07-08 21:04:00,
2013-07-08 16:09:00,82.1,78.2,30.11,SE,138,5.0,10.0,88,0.00,,,0.00,Wunderground v.1.15,2013-07-08 21:09:00,
2013-07-08 16:14:00,82.1,77.5,30.11,SE,141,6.0,8.0,86,0.00,,,0.00,Wunderground v.1.15,2013-07-08 21:14:00,
2013-07-08 16:19:00,82.1,77.8,30.12,South,184,3.0,8.0,87,0.00,,,0.00,Wunderground v.1.15,2013-07-08 21:19:00,
2013-07-08 16:24:00,82.1,77.8,30.12,South,172,4.0,6.0,87,0.00,,,0.00,Wunderground v.1.15,2013-07-08 21:24:00,
2013-07-08 16:29:00,81.9,78.0,30.12,SSE,160,4.0,6.0,88,0.00,,,0.00,Wunderground v.1.15,2013-07-08 21:29:00,
2013-07-08 16:34:00,81.7,77.8,30.12,SSE,160,4.0,5.0,88,0.00,,,0.00,Wunderground v.1.15,2013-07-08 21:34:00,
2013-07-08 16:40:00,81.2,77.6,30.12,SE,135,0.0,5.0,89,0.00,,,0.00,Wunderground v.1.15,2013-07-08 21:40:00,
2013-07-08 16:45:00,80.9,77.7,30.12,SSE,153,2.0,5.0,90,0.00,,,0.00,Wunderground v.1.15,2013-07-08 21:45:00,
2013-07-08 16:50:00,80.8,77.6,30.12,SSE,158,2.0,3.0,90,0.00,,,0.00,Wunderground v.1.15,2013-07-08 21:50:00,
2013-07-08 16:56:00,80.6,77.4,30.11,South,188,2.0,4.0,90,0.00,,,0.00,Wunderground v.1.15,2013-07-08 21:56:00,
2013-07-08 17:01:00,80.5,77.3,30.11,SSE,150,2.0,3.0,90,0.00,,,0.01,Wunderground v.1.15,2013-07-08 22:01:00,
2013-07-08 17:06:00,80.4,77.2,30.11,South,169,4.0,4.0,90,0.00,,,0.01,Wunderground v.1.15,2013-07-08 22:06:00,
2013-07-08 17:11:00,80.3,77.1,30.10,SSW,210,3.0,5.0,90,0.00,,,0.01,Wunderground v.1.15,2013-07-08 22:11:00,
2013-07-08 17:16:00,80.2,77.0,30.10,SSE,158,4.0,5.0,90,0.00,,,0.01,Wunderground v.1.15,2013-07-08 22:16:00,
2013-07-08 17:21:00,80.1,77.2,30.10,SE,142,2.0,4.0,91,0.00,,,0.01,Wunderground v.1.15,2013-07-08 22:21:00,
2013-07-08 17:27:00,80.1,77.2,30.10,SE,142,2.0,4.0,91,0.00,,,0.01,Wunderground v.1.15,2013-07-08 22:27:00,
2013-07-08 17:32:00,80.0,77.1,30.10,South,174,3.0,4.0,91,0.00,,,0.01,Wunderground v.1.15,2013-07-08 22:32:00,
2013-07-08 17:37:00,80.0,77.1,30.10,SSE,148,3.0,5.0,91,0.00,,,0.01,Wunderground v.1.15,2013-07-08 22:37:00,
2013-07-08 17:43:00,80.1,77.2,30.10,South,174,3.0,5.0,91,0.00,,,0.01,Wunderground v.1.15,2013-07-08 22:43:00,
2013-07-08 17:48:00,80.2,77.3,30.11,South,191,3.0,5.0,91,0.00,,,0.01,Wunderground v.1.15,2013-07-08 22:48:00,
2013-07-08 17:54:00,80.2,77.3,30.11,South,170,4.0,4.0,91,0.00,,,0.01,Wunderground v.1.15,2013-07-08 22:54:00,
2013-07-08 17:59:00,80.1,77.2,30.11,SSE,155,3.0,4.0,91,0.00,,,0.01,Wunderground v.1.15,2013-07-08 22:59:00,
2013-07-08 18:04:00,80.1,76.9,30.11,SE,141,1.0,4.0,90,0.00,,,0.01,Wunderground v.1.15,2013-07-08 23:04:00,
2013-07-08 18:10:00,80.0,77.1,30.11,SSW,200,0.0,2.0,91,0.00,,,0.01,Wunderground v.1.15,2013-07-08 23:10:00,
2013-07-08 18:15:00,79.3,76.4,30.12,NNW,333,1.0,3.0,91,0.00,,,0.01,Wunderground v.1.15,2013-07-08 23:15:00,
2013-07-08 18:20:00,78.7,76.2,30.12,NNW,333,1.0,1.0,92,0.00,,,0.01,Wunderground v.1.15,2013-07-08 23:20:00,
2013-07-08 18:26:00,78.4,76.2,30.12,NNE,25,0.0,1.0,93,0.00,,,0.01,Wunderground v.1.15,2013-07-08 23:26:00,
2013-07-08 18:31:00,78.2,76.0,30.12,NNE,25,0.0,1.0,93,0.00,,,0.01,Wunderground v.1.15,2013-07-08 23:31:00,
2013-07-08 18:37:00,78.1,76.2,30.12,NNE,25,0.0,1.0,94,0.00,,,0.01,Wunderground v.1.15,2013-07-08 23:37:00,
2013-07-08 18:42:00,78.2,76.3,30.12,East,97,1.0,1.0,94,0.00,,,0.01,Wunderground v.1.15,2013-07-08 23:42:00,
2013-07-08 18:48:00,78.5,76.6,30.12,ESE,107,0.0,1.0,94,0.00,,,0.01,Wunderground v.1.15,2013-07-08 23:48:00,
2013-07-08 18:53:00,78.6,76.7,30.12,ESE,108,1.0,1.0,94,0.00,,,0.01,Wunderground v.1.15,2013-07-08 23:53:00,
2013-07-08 18:58:00,78.8,76.9,30.12,ESE,105,0.0,1.0,94,0.00,,,0.01,Wunderground v.1.15,2013-07-08 23:58:00,
2013-07-08 19:03:00,79.0,76.8,30.11,ESE,108,0.0,0.0,93,0.00,,,0.01,Wunderground v.1.15,2013-07-09 00:03:00,
2013-07-08 19:08:00,79.2,76.7,30.11,South,169,2.0,3.0,92,0.00,,,0.01,Wunderground v.1.15,2013-07-09 00:08:00,
2013-07-08 19:14:00,79.5,76.6,30.11,SSE,160,3.0,3.0,91,0.00,,,0.01,Wunderground v.1.15,2013-07-09 00:14:00,
2013-07-08 19:20:00,79.7,76.5,30.10,SSE,160,2.0,2.0,90,0.00,,,0.01,Wunderground v.1.15,2013-07-09 00:20:00,
2013-07-08 19:25:00,79.7,75.8,30.10,SE,145,3.0,4.0,88,0.00,,,0.01,Wunderground v.1.15,2013-07-09 00:25:00,
2013-07-08 19:30:00,79.8,75.9,30.10,SSE,150,1.0,2.0,88,0.00,,,0.01,Wunderground v.1.15,2013-07-09 00:30:00,
2013-07-08 19:35:00,79.9,76.0,30.10,South,191,2.0,3.0,88,0.00,,,0.01,Wunderground v.1.15,2013-07-09 00:35:00,
2013-07-08 19:40:00,79.9,76.0,30.10,South,183,0.0,2.0,88,0.00,,,0.01,Wunderground v.1.15,2013-07-09 00:40:00,
2013-07-08 19:45:00,79.9,76.4,30.10,SSW,212,0.0,2.0,89,0.00,,,0.01,Wunderground v.1.15,2013-07-09 00:45:00,
2013-07-08 19:52:00,79.7,76.2,30.10,SSW,211,1.0,1.0,89,0.00,,,0.01,Wunderground v.1.15,2013-07-09 00:52:00,
2013-07-08 19:57:00,79.6,76.1,30.10,SSW,207,0.0,2.0,89,0.00,,,0.01,Wunderground v.1.15,2013-07-09 00:57:00,
2013-07-08 20:02:00,79.5,76.3,30.10,SSW,207,1.0,1.0,90,0.00,,,0.01,Wunderground v.1.15,2013-07-09 01:02:00,
2013-07-08 20:07:00,79.5,76.3,30.10,South,187,1.0,2.0,90,0.00,,,0.01,Wunderground v.1.15,2013-07-09 01:07:00,
2013-07-08 20:13:00,79.5,76.3,30.10,SSW,208,0.0,1.0,90,0.00,,,0.01,Wunderground v.1.15,2013-07-09 01:13:00,
2013-07-08 20:18:00,79.5,76.0,30.10,SSW,204,1.0,2.0,89,0.00,,,0.01,Wunderground v.1.15,2013-07-09 01:18:00,
2013-07-08 20:23:00,79.4,75.9,30.10,SSW,198,0.0,1.0,89,0.00,,,0.01,Wunderground v.1.15,2013-07-09 01:23:00,
2013-07-08 20:29:00,79.2,75.3,30.10,SSW,198,0.0,1.0,88,0.00,,,0.01,Wunderground v.1.15,2013-07-09 01:29:00,
2013-07-08 20:34:00,79.0,75.8,30.11,SSW,198,0.0,0.0,90,0.00,,,0.01,Wunderground v.1.15,2013-07-09 01:34:00,
2013-07-08 20:39:00,78.7,76.2,30.11,NW,311,1.0,2.0,92,0.00,,,0.01,Wunderground v.1.15,2013-07-09 01:39:00,
2013-07-08 20:45:00,78.2,76.0,30.11,NW,312,0.0,1.0,93,0.00,,,0.01,Wunderground v.1.15,2013-07-09 01:45:00,
2013-07-08 20:50:00,77.9,76.0,30.11,NW,311,0.0,0.0,94,0.00,,,0.01,Wunderground v.1.15,2013-07-09 01:50:00,
2013-07-08 20:55:00,77.8,76.3,30.11,NW,312,0.0,0.0,95,0.00,,,0.01,Wunderground v.1.15,2013-07-09 01:55:00,
2013-07-08 21:00:00,77.5,75.6,30.11,SE,142,2.0,2.0,94,0.00,,,0.01,Wunderground v.1.15,2013-07-09 02:00:00,
2013-07-08 21:06:00,78.0,75.5,30.11,SE,135,1.0,4.0,92,0.00,,,0.01,Wunderground v.1.15,2013-07-09 02:06:00,
2013-07-08 21:11:00,78.7,75.8,30.11,ESE,120,1.0,4.0,91,0.00,,,0.01,Wunderground v.1.15,2013-07-09 02:11:00,
2013-07-08 21:17:00,79.0,75.8,30.12,SE,128,3.0,4.0,90,0.00,,,0.01,Wunderground v.1.15,2013-07-09 02:17:00,
2013-07-08 21:22:00,79.2,75.7,30.12,SSE,164,5.0,5.0,89,0.00,,,0.01,Wunderground v.1.15,2013-07-09 02:22:00,
2013-07-08 21:28:00,79.4,75.9,30.12,South,176,4.0,5.0,89,0.00,,,0.01,Wunderground v.1.15,2013-07-09 02:28:00,
2013-07-08 21:34:00,79.6,75.7,30.12,SSE,148,4.0,5.0,88,0.00,,,0.01,Wunderground v.1.15,2013-07-09 02:34:00,
2013-07-08 21:39:00,79.7,76.2,30.12,South,173,3.0,5.0,89,0.00,,,0.01,Wunderground v.1.15,2013-07-09 02:39:00,
2013-07-08 21:45:00,79.7,76.2,30.13,SSE,163,4.0,5.0,89,0.00,,,0.01,Wunderground v.1.15,2013-07-09 02:45:00,
2013-07-08 21:51:00,79.7,75.8,30.13,South,174,2.0,4.0,88,0.00,,,0.01,Wunderground v.1.15,2013-07-09 02:51:00,
2013-07-08 21:56:00,79.7,75.8,30.13,SSE,163,5.0,5.0,88,0.00,,,0.01,Wunderground v.1.15,2013-07-09 02:56:00,
2013-07-08 22:02:00,79.8,75.9,30.13,SSE,163,2.0,6.0,88,0.00,,,0.01,Wunderground v.1.15,2013-07-09 03:02:00,
2013-07-08 22:10:00,79.8,75.6,30.14,SSE,150,3.0,3.0,87,0.00,,,0.01,Wunderground v.1.15,2013-07-09 03:10:00,
2013-07-08 22:15:00,79.7,75.8,30.14,South,169,2.0,3.0,88,0.00,,,0.01,Wunderground v.1.15,2013-07-09 03:15:00,
2013-07-08 22:20:00,79.7,75.8,30.14,SSE,150,2.0,3.0,88,0.00,,,0.01,Wunderground v.1.15,2013-07-09 03:20:00,
2013-07-08 22:26:00,79.7,75.5,30.14,ESE,120,1.0,4.0,87,0.00,,,0.01,Wunderground v.1.15,2013-07-09 03:26:00,
2013-07-08 22:31:00,79.6,75.4,30.14,South,181,1.0,2.0,87,0.00,,,0.01,Wunderground v.1.15,2013-07-09 03:31:00,
2013-07-08 22:39:00,79.6,75.7,30.14,SSE,158,1.0,3.0,88,0.00,,,0.01,Wunderground v.1.15,2013-07-09 03:39:00,
2013-07-08 22:45:00,79.4,75.9,30.14,SSW,206,2.0,3.0,89,0.00,,,0.01,Wunderground v.1.15,2013-07-09 03:45:00,
2013-07-08 22:50:00,79.4,75.9,30.14,SSW,194,2.0,2.0,89,0.00,,,0.01,Wunderground v.1.15,2013-07-09 03:50:00,
2013-07-08 22:56:00,79.2,75.7,30.14,SSW,194,0.0,2.0,89,0.00,,,0.01,Wunderground v.1.15,2013-07-09 03:56:00,
2013-07-08 23:01:00,79.0,75.5,30.14,SSW,194,0.0,1.0,89,0.00,,,0.01,Wunderground v.1.15,2013-07-09 04:01:00,
2013-07-08 23:06:00,78.5,75.3,30.14,SSW,194,1.0,1.0,90,0.00,,,0.01,Wunderground v.1.15,2013-07-09 04:06:00,
2013-07-08 23:12:00,77.9,75.4,30.14,SSW,194,1.0,1.0,92,0.00,,,0.01,Wunderground v.1.15,2013-07-09 04:12:00,
2013-07-08 23:17:00,77.4,75.2,30.14,SW,218,0.0,2.0,93,0.00,,,0.01,Wunderground v.1.15,2013-07-09 04:17:00,
2013-07-08 23:22:00,77.0,75.1,30.14,SW,218,0.0,1.0,94,0.00,,,0.01,Wunderground v.1.15,2013-07-09 04:22:00,
2013-07-08 23:27:00,76.8,74.9,30.14,SW,218,0.0,1.0,94,0.00,,,0.01,Wunderground v.1.15,2013-07-09 04:27:00,
2013-07-08 23:32:00,76.6,75.1,30.14,SW,218,0.0,0.0,95,0.00,,,0.01,Wunderground v.1.15,2013-07-09 04:32:00,
2013-07-08 23:37:00,76.4,74.9,30.14,SW,218,0.0,0.0,95,0.00,,,0.01,Wunderground v.1.15,2013-07-09 04:37:00,
2013-07-08 23:42:00,76.1,74.6,30.14,SW,218,0.0,0.0,95,0.00,,,0.01,Wunderground v.1.15,2013-07-09 04:42:00,
2013-07-08 23:47:00,75.9,74.4,30.14,SW,218,0.0,0.0,95,0.00,,,0.01,Wunderground v.1.15,2013-07-09 04:47:00,
2013-07-08 23:52:00,75.8,74.6,30.14,SW,218,0.0,0.0,96,0.00,,,0.01,Wunderground v.1.15,2013-07-09 04:52:00,
2013-07-08 23:57:00,75.8,74.6,30.14,SW,218,0.0,0.0,96,0.00,,,0.00,Wunderground v.1.15,2013-07-09 04:57:00,